[[{"header":{"parameterUnit":"m.s-1","parameterCategory":1,"la1":30.2991,"la2":30.254,"lo1":-89.0895,"lo2":-89.0444,"dy":0.0017,"dx":0.0017,"nx":28,"ny":28,"refTime":"2025-08-30T21:00:00:Z","depth":0,"parameterNumber":2,"parameterNumberName":"U-component_of_WINDS"},"data":[0,0,0,0,0,0,0,0,0,0,0,0,0,0,0,0,0,0,0,0,0,0,0,0,0,0,0,0,0,0,0,0,0,0,0,0,0,0,0,0,0,0,0,0,0,0,0,0,0,0,0,0,0,0,0,0,0,0,-4.2062,-4.2063,0,-4.2119,-4.212,-4.2121,-4.1976,-4.1971,-4.1967,-4.1963,-4.2023,-4.2029,-4.2034,0,0,0,0,0,0,0,0,0,0,0,0,0,-4.1827,-4.1832,-4.2062,-4.2063,-4.2063,-4.2119,-4.212,-4.2121,-4.1977,-4.1971,-4.1966,-4.196,-4.2021,-4.2028,-4.2035,0,0,0,0,0,0,0,0,0,0,0,0,0,-4.1912,-4.1834,-4.2062,-4.1998,-4.1993,-4.2119,-4.212,-4.2121,-4.1978,-4.1971,-4.1964,-4.1958,-4.2019,-4.2027,-4.2036,-4.2227,0,0,-4.2063,-4.2066,0,0,0,0,0,0,0,0,-4.1907,-4.192,-4.2007,-4.2003,-4.1997,-4.2033,-4.2059,-4.2156,-4.198,-4.1984,-4.1962,-4.1955,-4.2032,-4.2039,-4.2065,-4.2229,-4.2232,-4.2063,-4.2069,-4.2073,-4.2075,0,0,0,0,0,0,0,-4.1901,-4.1917,-4.2085,-4.2008,-4.2003,-4.1967,-4.1971,-4.2077,-4.2046,-4.1983,-4.1973,-4.1981,-4.2028,-4.2057,-4.2065,-4.2233,-4.2063,-4.2071,-4.2076,-4.208,-4.2553,-4.256,0,0,0,0,0,0,-4.1904,-4.1913,-4.2083,-4.2086,-4.1934,-4.1976,-4.1981,-4.2029,-4.2044,-4.204,-4.1987,-4.1974,-4.2045,-4.2055,-4.2067,-4.2289,-4.2072,-4.2081,-4.2086,-4.2546,-4.2554,-4.2562,0,0,0,0,0,0,-4.1899,-4.192,-4.208,-4.1997,-4.2015,-4.1988,-4.2042,-4.2034,-4.2062,-4.2047,-4.2041,-4.2022,-4.204,-4.2055,-4.2187,-4.2289,-4.2085,-4.2093,-4.2537,-4.2548,-4.2558,-4.2736,0,0,0,0,0,0,-4.1893,-4.1919,-4.1992,-4.2,-4.202,-4.2201,-4.2048,-4.204,-4.2077,-4.2061,-4.2078,-4.2075,-4.2036,-4.2175,-4.2196,-4.2297,-4.2099,-4.2528,-4.2542,-4.2555,-4.2721,-4.2752,-4.2778,0,0,0,0,0,-4.1885,-4.2041,-4.1996,-4.2018,-4.211,-4.2207,-4.2218,-4.217,-4.2086,-4.2158,-4.2148,-4.2074,-4.2275,-4.219,-4.2212,-4.2318,-4.2521,-4.2538,-4.2554,-4.2708,-4.2746,-4.2777,0,0,0,0,0,0,-4.2047,-4.2041,-4.1991,-4.2154,-4.2182,-4.2182,-4.2272,-4.2212,-4.2264,-4.2247,-4.2185,-4.2191,-4.2334,-4.2339,-4.2244,-4.2501,-4.2383,-4.2405,-4.2493,-4.2528,-4.2556,-4.2552,-4.2107,0,0,0,0,0,-4.2101,-4.2181,-4.2171,-4.2315,-4.2332,-4.23,-4.234,-4.23,-4.2327,-4.2338,-4.2338,-4.2367,-4.2435,-4.2482,-4.2545,-4.2721,-4.2721,-4.2804,-4.2833,-4.2856,-4.2876,-4.2966,-4.3002,-4.2616,-4.2616,-4.2616,0,0,-4.2215,-4.2221,-4.2275,-4.2348,-4.2365,-4.2447,-4.2311,-4.2405,-4.2465,-4.2353,-4.2477,-4.2478,-4.2505,-4.266,-4.2727,-4.2668,-4.2982,-4.2877,-4.2896,-4.2903,-4.2987,-4.3024,-4.3056,-4.2627,-4.2625,-4.2624,0,0,-4.2464,-4.2478,-4.2598,-4.2617,-4.2644,-4.2621,-4.265,-4.2659,-4.2655,-4.2778,-4.2695,-4.2766,-4.2887,-4.2909,-4.2936,-4.3191,-4.3124,-4.3213,-4.3362,-4.3451,-4.3482,-4.3508,-4.3597,-4.363,-4.3232,-4.3233,-4.3233,0,-4.2602,-4.2723,-4.2668,-4.2767,-4.28,-4.2701,-4.2821,-4.2843,-4.289,-4.2915,-4.2847,-4.2995,-4.3007,-4.3163,-4.3225,-4.3251,-4.3281,-4.3211,-4.3482,-4.3508,-4.3532,-4.3616,-4.365,-4.3243,-4.3242,-4.3241,-4.324,0,-4.2891,-4.2976,-4.307,-4.3116,-4.316,-4.327,-4.323,-4.3281,-4.3237,-4.3221,-4.3347,-4.3358,-4.3419,-4.3454,-4.3413,-4.3605,-4.3566,-4.3492,-4.3372,-4.358,-4.3658,-4.369,-4.3259,-4.3255,-4.3252,-4.3249,0,0,-4.3245,-4.3256,-4.3291,-4.3309,-4.333,-4.3395,-4.3499,-4.3559,-4.3603,-4.3638,-4.3723,-4.3826,-4.3756,-4.3787,-4.3747,-4.3826,-4.4024,-4.374,-4.374,-4.3791,-4.4233,-4.4288,-4.4327,-4.398,-4.3986,-4.399,-4.423,0,-4.3489,-4.3667,-4.3619,-4.3797,-4.3873,-4.3779,-4.3869,-4.3892,-4.3879,-4.3942,-4.3928,-4.4002,-4.3905,-4.3922,-4.3996,-4.3985,-4.4112,-4.3967,-4.4057,-4.4061,-4.4052,-4.4368,-4.4427,-4.4653,-4.426,-4.4266,-4.4269,0,-4.3798,-4.3843,-4.4028,-4.4033,-4.4063,-4.4146,-4.4195,-4.4257,-4.4279,-4.4265,-4.4298,-4.4242,-4.4343,-4.4223,-4.4361,-4.4264,-4.4298,-4.4298,-4.4305,-4.4311,-4.4177,-4.4381,-4.4724,-4.4757,-4.4317,-4.4313,-4.431,0,-4.4035,-4.4142,-4.4265,-4.4284,-4.4294,-4.4354,-4.4361,-4.4377,-4.4415,-4.4458,-4.4481,-4.4536,-4.4566,-4.461,-4.4569,-4.4486,-4.4713,-4.459,-4.4703,-4.4704,-4.4754,-4.4752,-4.5107,-4.4779,-4.4779,-4.4778,-4.4778,0,-4.4311,-4.4428,-4.4371,-4.4448,-4.4574,-4.4518,-4.4645,-4.4641,-4.4656,-4.4729,-4.4651,-4.4721,-4.4664,-4.4729,-4.4698,-4.4815,-4.483,-4.482,-4.481,-4.4827,-4.4828,-4.4847,-4.483,-4.4787,-4.4785,-4.4783,-4.4782,0,-4.4598,-4.4565,-4.4693,-4.4691,-4.4693,-4.4787,-4.4785,-4.4855,-4.4836,-4.4929,-4.4948,-4.4918,-4.499,-4.4954,-4.503,-4.5009,-4.516,-4.513,-4.5153,-4.5144,-4.5258,-4.5247,-4.5637,-4.5684,-4.5328,-4.5332,-4.5335,0,-4.4776,-4.4863,-4.487,-4.4912,-4.4924,-4.4995,-4.5032,-4.498,-4.5022,-4.5053,-4.5119,-4.5184,-4.5233,-4.5352,-4.5337,-4.5394,-4.5364,-4.5496,-4.5372,-4.5384,-4.5363,-4.5358,-4.5365,-4.5521,-4.5525,-4.5529,-4.5532,0,-4.5095,-4.5073,-4.513,-4.5182,-4.5228,-4.5267,-4.5298,-4.5337,-4.5285,-4.5336,-4.5408,-4.5446,-4.5522,-4.5587,-4.5636,-4.5642,-4.5578,-4.5571,-4.5599,-4.5616,-4.5625,-4.5619,-4.5219,-4.5562,-4.5559,-4.5557,-4.5555,-4.5554,-4.5331,-4.5403,-4.5418,-4.5483,-4.5501,-4.5532,-4.5596,-4.5585,-4.5644,-4.57,-4.5665,-4.575,-4.5767,-4.5826,-4.5841,-4.5905,-4.5852,-4.5894,-4.5905,-4.5916,-4.593,-4.5616,-4.5914,-4.5913,-4.5912,-4.5912,-4.5911,0,-4.5644,-4.5649,-4.5709,-4.5755,-4.5806,-4.574,-4.5771,-4.5818,-4.5893,-4.5915,-4.5964,-4.6045,-4.6108,-4.6097,-4.6153,-4.6207,-4.6179,-4.6223,-4.6218,-4.622,-4.5975,-4.5944,-4.6245,-4.6245,-4.6245,-4.6245,-4.6244,-4.6244,-4.5813,-4.593,-4.591,-4.6035,-4.6038,-4.6119,-4.6142,-4.6169,-4.6186,-4.628,-4.6331,-4.6323,-4.6332,-4.6388,-4.6441,-4.6436,-4.646,-4.6515,-4.6499,-4.6271,-4.6238,-4.6206,-4.6176,-4.6521,-4.6521,-4.6738,-4.674,-4.6742]},{"header":{"parameterUnit":"m.s-1","parameterCategory":1,"la1":30.2991,"la2":30.254,"lo1":-89.0895,"lo2":-89.0444,"dy":0.0017,"dx":0.0017,"nx":28,"ny":28,"refTime":"2025-08-30T21:00:00:Z","depth":0,"parameterNumber":3,"parameterNumberName":"V-component_of_WINDS"},"data":[0,0,0,0,0,0,0,0,0,0,0,0,0,0,0,0,0,0,0,0,0,0,0,0,0,0,0,0,0,0,0,0,0,0,0,0,0,0,0,0,0,0,0,0,0,0,0,0,0,0,0,0,0,0,0,0,0,0,-3.0214,-3.0215,0,-3.0244,-3.0244,-3.0244,-3.0206,-3.0205,-3.0203,-3.0202,-3.0231,-3.0233,-3.0235,0,0,0,0,0,0,0,0,0,0,0,0,0,-3.0123,-3.0125,-3.0214,-3.0215,-3.0215,-3.0244,-3.0244,-3.0244,-3.0206,-3.0204,-3.0203,-3.0201,-3.023,-3.0233,-3.0235,0,0,0,0,0,0,0,0,0,0,0,0,0,-3.0159,-3.0126,-3.0214,-3.02,-3.0198,-3.0244,-3.0244,-3.0245,-3.0207,-3.0204,-3.0202,-3.02,-3.023,-3.0233,-3.0236,-3.0297,0,0,-3.0245,-3.0247,0,0,0,0,0,0,0,0,-3.0157,-3.0162,-3.0201,-3.0201,-3.02,-3.0219,-3.0222,-3.0262,-3.0207,-3.0203,-3.0202,-3.0199,-3.0229,-3.0232,-3.0242,-3.0298,-3.0299,-3.0245,-3.0247,-3.0249,-3.025,0,0,0,0,0,0,0,-3.0154,-3.0161,-3.0226,-3.0202,-3.0201,-3.0191,-3.0193,-3.023,-3.0227,-3.0204,-3.0201,-3.0205,-3.0228,-3.0239,-3.0242,-3.03,-3.0245,-3.0248,-3.025,-3.0251,-3.0404,-3.0406,0,0,0,0,0,0,-3.0154,-3.0159,-3.0225,-3.0227,-3.0173,-3.0194,-3.0197,-3.0215,-3.0227,-3.0227,-3.0207,-3.0203,-3.0235,-3.0239,-3.0243,-3.0313,-3.0249,-3.0252,-3.0253,-3.0402,-3.0405,-3.0407,0,0,0,0,0,0,-3.0152,-3.016,-3.0224,-3.0192,-3.0199,-3.0198,-3.0218,-3.0217,-3.0228,-3.0229,-3.0228,-3.0219,-3.0233,-3.0239,-3.0283,-3.0314,-3.0253,-3.0256,-3.0399,-3.0403,-3.0406,-3.0455,0,0,0,0,0,0,-3.0149,-3.016,-3.0184,-3.0193,-3.0201,-3.0264,-3.022,-3.0219,-3.0233,-3.0229,-3.024,-3.024,-3.0232,-3.0278,-3.0286,-3.0317,-3.0258,-3.0397,-3.0401,-3.0405,-3.0451,-3.046,-3.0468,0,0,0,0,0,-3.0146,-3.0197,-3.0185,-3.0193,-3.0231,-3.0266,-3.0271,-3.0261,-3.0236,-3.0259,-3.026,-3.024,-3.0309,-3.0283,-3.0292,-3.0324,-3.0395,-3.04,-3.0404,-3.0447,-3.0458,-3.0467,0,0,0,0,0,0,-3.0192,-3.0198,-3.0185,-3.024,-3.0253,-3.026,-3.0289,-3.0273,-3.0293,-3.0288,-3.0274,-3.0277,-3.0324,-3.0328,-3.0299,-3.0382,-3.0348,-3.0354,-3.0377,-3.0388,-3.0396,-3.0394,-3.0261,0,0,0,0,0,-3.0208,-3.0236,-3.024,-3.0288,-3.0295,-3.0291,-3.0306,-3.0297,-3.0309,-3.0315,-3.0318,-3.0331,-3.0355,-3.0372,-3.0395,-3.0451,-3.0452,-3.0477,-3.0486,-3.0493,-3.0498,-3.0526,-3.0537,-3.0423,-3.0423,-3.0423,0,0,-3.0242,-3.0249,-3.0268,-3.0297,-3.0306,-3.0335,-3.0296,-3.0328,-3.0349,-3.0319,-3.0361,-3.0364,-3.0377,-3.0427,-3.045,-3.0432,-3.053,-3.0499,-3.0504,-3.0506,-3.0533,-3.0543,-3.0553,-3.0427,-3.0426,-3.0425,0,0,-3.0319,-3.0328,-3.0367,-3.0377,-3.039,-3.0387,-3.0396,-3.0405,-3.0406,-3.0447,-3.0425,-3.0449,-3.0492,-3.0501,-3.0512,-3.0589,-3.0571,-3.0597,-3.064,-3.0668,-3.0677,-3.0685,-3.0711,-3.072,-3.0603,-3.0603,-3.0603,0,-3.036,-3.0402,-3.039,-3.0423,-3.0436,-3.041,-3.0449,-3.0459,-3.0479,-3.0488,-3.0469,-3.052,-3.0528,-3.0578,-3.0597,-3.0607,-3.0616,-3.0596,-3.0677,-3.0684,-3.0692,-3.0716,-3.0726,-3.0606,-3.0606,-3.0605,-3.0605,0,-3.045,-3.048,-3.0511,-3.053,-3.0546,-3.0583,-3.0575,-3.0593,-3.0581,-3.058,-3.0621,-3.0628,-3.0651,-3.0662,-3.0652,-3.0711,-3.07,-3.0679,-3.0644,-3.0706,-3.0728,-3.0738,-3.061,-3.0609,-3.0608,-3.0608,0,0,-3.0558,-3.0568,-3.0579,-3.0587,-3.0599,-3.0621,-3.0655,-3.0677,-3.0692,-3.0706,-3.0733,-3.0769,-3.0749,-3.0761,-3.0752,-3.0776,-3.0834,-3.0751,-3.0751,-3.0765,-3.0897,-3.0912,-3.0924,-3.0822,-3.0824,-3.0825,-3.0896,0,-3.0633,-3.0692,-3.0681,-3.0738,-3.0764,-3.0739,-3.0768,-3.0778,-3.0777,-3.0798,-3.0796,-3.0821,-3.0794,-3.08,-3.0823,-3.0822,-3.086,-3.0817,-3.0846,-3.0848,-3.0843,-3.0936,-3.0952,-3.1018,-3.0905,-3.0906,-3.0907,0,-3.0729,-3.0746,-3.0805,-3.0811,-3.0821,-3.0848,-3.0866,-3.0887,-3.0897,-3.0894,-3.0906,-3.0891,-3.0924,-3.0889,-3.0933,-3.0904,-3.0915,-3.0916,-3.0918,-3.092,-3.0881,-3.0939,-3.104,-3.1049,-3.0922,-3.0921,-3.092,0,-3.0799,-3.0837,-3.0876,-3.0884,-3.0892,-3.0911,-3.0915,-3.0922,-3.0935,-3.0951,-3.0959,-3.0978,-3.0989,-3.1003,-3.0994,-3.0969,-3.1038,-3.1003,-3.1036,-3.1036,-3.1051,-3.105,-3.1154,-3.106,-3.106,-3.106,-3.106,0,-3.0884,-3.0921,-3.0908,-3.0932,-3.0972,-3.0958,-3.0998,-3.0999,-3.1006,-3.1029,-3.1009,-3.1031,-3.1017,-3.1038,-3.1031,-3.1067,-3.1072,-3.107,-3.1068,-3.1071,-3.1072,-3.1078,-3.1073,-3.1063,-3.1062,-3.1062,-3.1061,0,-3.0969,-3.0962,-3.1003,-3.1006,-3.1008,-3.1037,-3.1039,-3.1062,-3.1058,-3.1088,-3.1094,-3.1088,-3.1111,-3.1103,-3.1129,-3.1123,-3.1169,-3.1161,-3.1166,-3.1163,-3.1196,-3.1193,-3.1307,-3.132,-3.1219,-3.122,-3.1221,0,-3.1023,-3.105,-3.1056,-3.107,-3.1075,-3.1098,-3.1111,-3.1098,-3.1112,-3.1124,-3.1144,-3.1165,-3.1182,-3.122,-3.1217,-3.1236,-3.1228,-3.1266,-3.123,-3.1233,-3.1226,-3.1224,-3.1226,-3.1273,-3.1274,-3.1275,-3.1276,0,-3.1119,-3.1113,-3.1132,-3.115,-3.1165,-3.1178,-3.119,-3.1202,-3.1189,-3.1206,-3.1229,-3.1242,-3.1266,-3.1287,-3.1303,-3.1307,-3.1289,-3.1287,-3.1296,-3.13,-3.13,-3.1299,-3.1184,-3.1285,-3.1284,-3.1283,-3.1283,-3.1283,-3.1189,-3.1211,-3.1218,-3.1239,-3.1246,-3.1257,-3.1277,-3.1275,-3.1294,-3.1313,-3.1304,-3.133,-3.1337,-3.1357,-3.1363,-3.1382,-3.1367,-3.138,-3.1383,-3.1386,-3.1389,-3.1298,-3.1386,-3.1385,-3.1385,-3.1385,-3.1385,0,-3.1283,-3.1285,-3.1305,-3.132,-3.1336,-3.1318,-3.1329,-3.1344,-3.1367,-3.1375,-3.1391,-3.1416,-3.1436,-3.1435,-3.1452,-3.1468,-3.1461,-3.1473,-3.1472,-3.1472,-3.1403,-3.1393,-3.1479,-3.1479,-3.1479,-3.1479,-3.1479,-3.1479,-3.1333,-3.1369,-3.1364,-3.1403,-3.1405,-3.143,-3.1438,-3.1447,-3.1453,-3.1482,-3.1498,-3.1497,-3.15,-3.1518,-3.1535,-3.1534,-3.1541,-3.1556,-3.1552,-3.1487,-3.1477,-3.1469,-3.1459,-3.1558,-3.1558,-3.162,-3.162,-3.1621]}]]